Regional Weather Roundup
Issued by NWS Sioux Falls, SD

Home | Current Version | Previous Version | Graphics & Text | Print | Product List | Glossary Off
Versions: 1 2 3 4 5 6 7 8 9 10 11 12 13 14 15 16 17 18 19 20 21 22 23 24 25 26 27 28 29 30 31 32 33 34 35 36 37 38 39 40 41 42 43 44 45 46 47 48 49 50

000
ASUS43 KFSD 202102
RWRFSD

WEATHER ROUNDUP FOR SE SOUTH DAKOTA/SW MINNESOTA/NW IOWA
NATIONAL WEATHER SERVICE SIOUX FALLS SD
400 PM CDT SUN APR 20 2014

NOTE: "FAIR" INDICATES FEW OR NO CLOUDS BELOW 12,000 FEET WITH NO
SIGNIFICANT WEATHER AND OR OBSTRUCTIONS TO VISIBILITY.


SDZ038>040-050-052>070-202200-
SOUTHEAST SOUTH DAKOTA

CITY           SKY/WX    TMP DP  RH WIND       PRES   REMARKS
CHAMBERLAIN      N/A     81  36  19 S13       29.88F
HURON          MOSUNNY   77  28  16 SE10G17   29.88F
MADISON        FAIR      77  37  24 SE13G21   29.92F
MITCHELL       SUNNY     81  42  25 S10G17    29.88F
SIOUX FALLS    MOSUNNY   79  46  31 E12       29.90F
WINNER         FAIR      82  42  24 S13       29.88F
YANKTON        MOSUNNY   77  50  38 SE5       29.91F
$$

MNZ071-072-080-081-089-090-097-098-202200-
SOUTHWEST MINNESOTA

CITY           SKY/WX    TMP DP  RH WIND       PRES   REMARKS
FAIRMONT       PTSUNNY   73  52  46 SE9       29.96F
JACKSON        MOSUNNY   77  45  31 SE7       29.95F
LUVERNE        SUNNY     79  43  27 SE8       29.91F
MARSHALL       SUNNY     73  36  25 SE12      29.94F
MONTEVIDEO     SUNNY     75  36  23 S9G16     29.96F
PIPESTONE      SUNNY     75  37  25 SE9       29.93F
REDWOOD FALLS  SUNNY     75  31  19 E5        29.94F
TRACY          SUNNY     76  34  21 CALM      29.95F
WINDOM         SUNNY     75  46  35 E6        29.94F
WORTHINGTON    MOSUNNY   75  46  35 E6        29.95F
$$

IAZ001>003-012>014-020>022-031-032-NEZ013-014-SDZ071-202200-
NORTHWEST IOWA

CITY           SKY/WX    TMP DP  RH WIND       PRES   REMARKS
CHEROKEE       PTSUNNY   79  52  38 S14       29.91F
DENISON        PTSUNNY   82  50  32 S13G24    29.91F
ESTHERVILLE    MOSUNNY   75  56  51 VRB5      29.94F
SHELDON        PTSUNNY   75  54  46 S13       29.91F
SIOUX CITY     PTSUNNY   85  51  31 SW14      29.88F
SPENCER        PTSUNNY   77  55  46 SE7       29.93F
STORM LAKE     PTSUNNY   79  52  38 S21G28    29.92F HAZE
$$

ABBREVIATIONS USED IN REMARKS
   TC - TEMPERATURE IN CELSIUS
  WCI - WIND CHILL INDEX
   HX - HEAT INDEX
  VSB - VISIBILITY




USA.gov is the U.S. government's official web portal to all federal, state and local government web resources and services.